When you browse on this site, cookies collect data to enhance your experience and personalize the content and advertising you see.
Visit our Privacy Policy to learn more. By continuing to use the site, you agree to this use of cookies and data.
  • In Austria
  • List of Countries
  • For 7 days
  • Water Temperature
  • Weather Map
  • News
  • Weather Widgets
  • user-avatar
    Login

    Hourly Weather Mineral del Monte

    Today, 14 November, Thursday

    Time Temperature Precipitation Wind Pressure Humidity
    00:00 +9°C° 0 mm 1 mps 545 mmHg 78%
    01:00 +8°C° 0 mm 1 mps 545 mmHg 77%
    02:00 +8°C° 0 mm 1 mps 545 mmHg 76%
    03:00 +8°C° 0 mm 1 mps 544 mmHg 77%
    04:00 +8°C° 0 mm 1 mps 544 mmHg 78%
    05:00 +7°C° 0 mm 1 mps 544 mmHg 79%
    06:00 +9°C° 0 mm 1 mps 546 mmHg 72%
    07:00 +10°C° 0 mm 1 mps 547 mmHg 66%
    08:00 +12°C° 0 mm 1 mps 548 mmHg 60%
    09:00 +13°C° 0 mm 1 mps 549 mmHg 55%
    10:00 +15°C° 0 mm 1 mps 549 mmHg 50%
    11:00 +16°C° 0 mm 2 mps 550 mmHg 45%
    12:00 +16°C° 0.1 mm 2 mps 549 mmHg 48%
    13:00 +16°C° 0.1 mm 2 mps 549 mmHg 50%
    14:00 +16°C° 0.1 mm 2 mps 548 mmHg 53%
    15:00 +13°C° 0.4 mm 3 mps 547 mmHg 63%
    16:00 +12°C° 0.4 mm 3 mps 547 mmHg 74%
    17:00 +10°C° 0.4 mm 3 mps 546 mmHg 85%
    18:00 +9°C° 0.1 mm 3 mps 546 mmHg 87%
    19:00 +9°C° 0.1 mm 3 mps 547 mmHg 88%
    20:00 +8°C° 0.1 mm 3 mps 547 mmHg 90%
    21:00 +8°C° 0.2 mm 3 mps 547 mmHg 90%
    22:00 +8°C° 0.2 mm 3 mps 547 mmHg 91%
    23:00 +8°C° 0.2 mm 2 mps 547 mmHg 91%

    Tomorrow, 15 November, Friday

    Time Temperature Precipitation Wind Pressure Humidity
    00:00 +7°C° 0.3 mm 2 mps 547 mmHg 91%
    01:00 +7°C° 0.3 mm 2 mps 546 mmHg 92%
    02:00 +7°C° 0.3 mm 2 mps 546 mmHg 92%
    03:00 +7°C° 0.1 mm 2 mps 547 mmHg 92%
    04:00 +7°C° 0.1 mm 2 mps 547 mmHg 92%
    05:00 +7°C° 0.1 mm 2 mps 547 mmHg 92%
    06:00 +7°C° 0.1 mm 2 mps 547 mmHg 92%
    07:00 +7°C° 0.1 mm 2 mps 548 mmHg 92%
    08:00 +7°C° 0.1 mm 2 mps 548 mmHg 92%
    09:00 +7°C° 0 mm 2 mps 548 mmHg 89%
    10:00 +8°C° 0 mm 2 mps 548 mmHg 86%
    11:00 +8°C° 0 mm 3 mps 548 mmHg 83%
    12:00 +8°C° 0 mm 3 mps 548 mmHg 83%
    13:00 +8°C° 0 mm 3 mps 547 mmHg 83%
    14:00 +8°C° 0 mm 3 mps 546 mmHg 83%
    15:00 +7°C° 0 mm 3 mps 546 mmHg 85%
    16:00 +7°C° 0 mm 2 mps 546 mmHg 88%
    17:00 +6°C° 0 mm 2 mps 546 mmHg 90%
    18:00 +6°C° 0 mm 2 mps 546 mmHg 90%
    19:00 +6°C° 0 mm 2 mps 546 mmHg 91%
    20:00 +6°C° 0 mm 2 mps 547 mmHg 92%
    21:00 +7°C° 0 mm 1 mps 546 mmHg 92%
    22:00 +7°C° 0 mm 1 mps 546 mmHg 92%
    23:00 +7°C° 0 mm 1 mps 546 mmHg 92%

    Day after tomorrow, 16 November, Saturday

    Time Temperature Precipitation Wind Pressure Humidity
    00:00 +7°C° 0 mm 1 mps 546 mmHg 91%
    01:00 +6°C° 0 mm 0 mps 546 mmHg 91%
    02:00 +6°C° 0 mm 0 mps 545 mmHg 91%
    03:00 +6°C° 0 mm 0 mps 545 mmHg 91%
    04:00 +6°C° 0 mm 0 mps 545 mmHg 92%
    05:00 +6°C° 0 mm 0 mps 545 mmHg 93%
    06:00 +7°C° 0 mm 0 mps 546 mmHg 88%
    07:00 +8°C° 0 mm 0 mps 547 mmHg 83%
    08:00 +9°C° 0 mm 0 mps 548 mmHg 78%
    09:00 +12°C° 0 mm 1 mps 548 mmHg 72%
    10:00 +13°C° 0 mm 1 mps 549 mmHg 66%
    11:00 +15°C° 0 mm 2 mps 549 mmHg 60%
    12:00 +15°C° 0.1 mm 2 mps 549 mmHg 60%
    13:00 +15°C° 0.1 mm 2 mps 548 mmHg 59%
    14:00 +14°C° 0.1 mm 3 mps 548 mmHg 58%
    15:00 +13°C° 0.1 mm 3 mps 547 mmHg 67%
    16:00 +12°C° 0.1 mm 2 mps 546 mmHg 77%
    17:00 +10°C° 0.1 mm 2 mps 546 mmHg 86%
    18:00 +9°C° 0 mm 2 mps 546 mmHg 87%
    19:00 +10°C° 0 mm 1 mps 546 mmHg 88%
    20:00 +9°C° 0 mm 1 mps 546 mmHg 89%
    21:00 +10°C° 0 mm 1 mps 546 mmHg 87%
    22:00 +9°C° 0 mm 0 mps 546 mmHg 85%
    23:00 +9°C° 0 mm 0 mps 546 mmHg 83%

    17 November, Sunday

    Time Temperature Precipitation Wind Pressure Humidity
    00:00 +9°C° 0 mm 0 mps 546 mmHg 83%
    01:00 +9°C° 0 mm 0 mps 545 mmHg 82%
    02:00 +10°C° 0 mm 1 mps 545 mmHg 82%
    03:00 +10°C° 0 mm 1 mps 545 mmHg 84%
    04:00 +9°C° 0 mm 1 mps 545 mmHg 86%
    05:00 +9°C° 0 mm 1 mps 545 mmHg 88%
    06:00 +10°C° 0 mm 1 mps 545 mmHg 81%
    07:00 +12°C° 0 mm 1 mps 546 mmHg 74%
    08:00 +13°C° 0 mm 1 mps 547 mmHg 68%
    09:00 +14°C° 0 mm 2 mps 547 mmHg 62%
    10:00 +15°C° 0 mm 2 mps 548 mmHg 57%
    11:00 +17°C° 0 mm 3 mps 548 mmHg 51%
    12:00 +17°C° 0.1 mm 3 mps 548 mmHg 53%
    13:00 +17°C° 0.1 mm 3 mps 547 mmHg 54%
    14:00 +15°C° 0.1 mm 4 mps 546 mmHg 55%
    15:00 +14°C° 0.3 mm 3 mps 546 mmHg 63%
    16:00 +13°C° 0.3 mm 3 mps 546 mmHg 71%
    17:00 +12°C° 0.3 mm 2 mps 545 mmHg 79%
    18:00 +12°C° 0 mm 2 mps 545 mmHg 80%
    19:00 +10°C° 0 mm 2 mps 546 mmHg 82%
    20:00 +11°C° 0 mm 1 mps 546 mmHg 83%
    21:00 +10°C° 0 mm 1 mps 545 mmHg 85%
    22:00 +10°C° 0 mm 1 mps 545 mmHg 86%
    23:00 +8°C° 0 mm 0 mps 544 mmHg 88%

    18 November, Monday

    Time Temperature Precipitation Wind Pressure Humidity
    00:00 +8°C° 0 mm 0 mps 544 mmHg 88%
    01:00 +7°C° 0 mm 0 mps 544 mmHg 87%
    02:00 +7°C° 0 mm 0 mps 543 mmHg 87%
    03:00 +7°C° 0 mm 0 mps 543 mmHg 86%
    04:00 +6°C° 0 mm 0 mps 543 mmHg 85%
    05:00 +6°C° 0 mm 0 mps 543 mmHg 84%
    06:00 +8°C° 0 mm 0 mps 544 mmHg 78%
    07:00 +9°C° 0 mm 0 mps 545 mmHg 72%
    08:00 +11°C° 0 mm 0 mps 546 mmHg 66%
    09:00 +13°C° 0 mm 1 mps 547 mmHg 61%
    10:00 +14°C° 0 mm 2 mps 547 mmHg 57%
    11:00 +15°C° 0 mm 2 mps 547 mmHg 52%
    12:00 +16°C° 0 mm 3 mps 547 mmHg 52%
    13:00 +16°C° 0 mm 3 mps 546 mmHg 53%
    14:00 +15°C° 0 mm 4 mps 546 mmHg 53%
    15:00 +14°C° 0 mm 3 mps 545 mmHg 61%
    16:00 +12°C° 0 mm 3 mps 545 mmHg 70%
    17:00 +12°C° 0 mm 2 mps 544 mmHg 79%
    18:00 +10°C° 0 mm 2 mps 544 mmHg 81%
    19:00 +11°C° 0 mm 1 mps 545 mmHg 84%
    20:00 +11°C° 0 mm 1 mps 545 mmHg 86%
    21:00 +9°C° 0 mm 0 mps 544 mmHg 85%
    22:00 +9°C° 0 mm 0 mps 544 mmHg 83%
    23:00 +8°C° 0 mm 0 mps 544 mmHg 82%

    19 November, Tuesday

    Time Temperature Precipitation Wind Pressure Humidity
    00:00 +8°C° 0 mm 0 mps 543 mmHg 81%
    01:00 +7°C° 0 mm 0 mps 543 mmHg 80%
    02:00 +7°C° 0 mm 0 mps 543 mmHg 80%
    03:00 +7°C° 0 mm 0 mps 543 mmHg 80%
    04:00 +6°C° 0 mm 0 mps 543 mmHg 80%
    05:00 +7°C° 0 mm 1 mps 543 mmHg 80%
    06:00 +8°C° 0 mm 1 mps 544 mmHg 75%
    07:00 +10°C° 0 mm 1 mps 545 mmHg 69%
    08:00 +11°C° 0 mm 1 mps 546 mmHg 64%
    09:00 +12°C° 0 mm 2 mps 547 mmHg 60%
    10:00 +12°C° 0 mm 3 mps 547 mmHg 55%
    11:00 +14°C° 0 mm 3 mps 548 mmHg 51%
    12:00 +13°C° 0 mm 4 mps 547 mmHg 53%
    13:00 +13°C° 0 mm 4 mps 547 mmHg 56%
    14:00 +13°C° 0 mm 4 mps 546 mmHg 58%
    15:00 +11°C° 0 mm 4 mps 546 mmHg 63%
    16:00 +10°C° 0 mm 3 mps 545 mmHg 68%
    17:00 +8°C° 0 mm 3 mps 545 mmHg 73%
    18:00 +7°C° 0 mm 2 mps 545 mmHg 77%
    19:00 +6°C° 0 mm 2 mps 545 mmHg 81%
    20:00 +5°C° 0 mm 2 mps 545 mmHg 85%
    21:00 +6°C° 0 mm 1 mps 545 mmHg 83%
    22:00 +7°C° 0 mm 1 mps 545 mmHg 81%
    23:00 +7°C° 0 mm 1 mps 545 mmHg 79%
    Show more